AAL1673 KCMH-KDCA

Flight info

Callsign AAL1673
Flight time 0h 46m
Altitude 35000
Route OWEBO AIR BUCKO FRDMM6
Aircraft B738/M-SDE2E3FGHIRWXY/LB1

Departure

Time 2026-05-08 14:39
Airport John Glenn Columbus International Airport (KCMH)

Arrival

Time 2026-05-08 15:25
Airport Ronald Reagan Washington National Airport (KDCA)
Time Latitude Longitude Altitude Speed Heading
2026-05-08 13:51 39.99745 -82.88154 820 ft 0 kts
2026-05-08 14:23 39.99741 -82.88154 820 ft 2 kts
2026-05-08 14:23 39.99729 -82.88156 817 ft 3 kts
2026-05-08 14:23 39.99710 -82.88159 819 ft 3 kts
2026-05-08 14:23 39.99689 -82.88166 818 ft 3 kts 30°
2026-05-08 14:24 39.99671 -82.88184 815 ft 3 kts 51°
2026-05-08 14:24 39.99665 -82.88200 819 ft 1 kts 81°
2026-05-08 14:24 39.99665 -82.88201 819 ft 0 kts 81°
2026-05-08 14:33 39.99665 -82.88200 819 ft 0 kts 81°
2026-05-08 14:34 39.99663 -82.88182 820 ft 7 kts 102°
2026-05-08 14:34 39.99641 -82.88120 820 ft 8 kts 121°
2026-05-08 14:34 39.99612 -82.88056 820 ft 8 kts 115°
2026-05-08 14:34 39.99598 -82.87985 819 ft 8 kts 97°
2026-05-08 14:35 39.99566 -82.87929 823 ft 9 kts 159°
2026-05-08 14:35 39.99499 -82.87903 824 ft 11 kts 138°
2026-05-08 14:35 39.99470 -82.87817 825 ft 11 kts 124°
2026-05-08 14:35 39.99416 -82.87792 824 ft 0 kts 178°
2026-05-08 14:36 39.99398 -82.87789 824 ft 6 kts 166°
2026-05-08 14:36 39.99364 -82.87733 822 ft 10 kts 102°
2026-05-08 14:36 39.99357 -82.87636 824 ft 12 kts 95°
2026-05-08 14:36 39.99350 -82.87526 824 ft 12 kts 95°
2026-05-08 14:37 39.99344 -82.87421 823 ft 10 kts 94°
2026-05-08 14:37 39.99329 -82.87343 821 ft 9 kts 126°
2026-05-08 14:37 39.99264 -82.87321 822 ft 11 kts 182°
2026-05-08 14:37 39.99191 -82.87326 822 ft 9 kts 183°
2026-05-08 14:38 39.99165 -82.87375 820 ft 5 kts 272°
2026-05-08 14:38 39.99168 -82.87435 820 ft 20 kts 274°
2026-05-08 14:38 39.99205 -82.88056 821 ft 114 kts 274°
2026-05-08 14:38 39.99281 -82.89400 1066 ft 166 kts 272°
2026-05-08 14:39 39.99368 -82.90921 2172 ft 174 kts 272°
2026-05-08 14:39 39.99468 -82.92537 3159 ft 180 kts 274°
2026-05-08 14:39 39.99557 -82.94144 4128 ft 175 kts 275°
2026-05-08 14:39 39.99919 -82.95618 5058 ft 172 kts 304°
2026-05-08 14:40 40.00921 -82.96481 6003 ft 181 kts 339°
2026-05-08 14:40 40.02230 -82.96507 6738 ft 205 kts
2026-05-08 14:40 40.03623 -82.95706 7335 ft 233 kts 36°
2026-05-08 14:40 40.04578 -82.93930 7958 ft 255 kts 68°
2026-05-08 14:41 40.04922 -82.91598 8614 ft 268 kts 83°
2026-05-08 14:41 40.05101 -82.89112 9248 ft 282 kts 85°
2026-05-08 14:41 40.05198 -82.86489 9900 ft 296 kts 88°
2026-05-08 14:41 40.05260 -82.83746 10485 ft 310 kts 88°
2026-05-08 14:42 40.05317 -82.80871 11082 ft 323 kts 88°
2026-05-08 14:42 40.05379 -82.77884 11696 ft 335 kts 87°
2026-05-08 14:42 40.05447 -82.74814 12473 ft 342 kts 86°
2026-05-08 14:42 40.05524 -82.71616 12883 ft 365 kts 86°
2026-05-08 14:43 40.05610 -82.68219 13329 ft 382 kts 85°
2026-05-08 14:43 40.05697 -82.64709 14102 ft 386 kts 85°
2026-05-08 14:43 40.05756 -82.61268 15324 ft 376 kts 87°
2026-05-08 14:43 40.05781 -82.57817 15971 ft 386 kts 86°
2026-05-08 14:44 40.05869 -82.54244 16399 ft 401 kts 85°
2026-05-08 14:44 40.05984 -82.50573 17059 ft 407 kts 84°
2026-05-08 14:44 40.06099 -82.46855 17875 ft 410 kts 85°
2026-05-08 14:44 40.06204 -82.43168 18598 ft 414 kts 85°
2026-05-08 14:45 40.06304 -82.39384 19208 ft 420 kts 85°
2026-05-08 14:45 40.06399 -82.35544 19768 ft 426 kts 85°
2026-05-08 14:45 40.06491 -82.31645 20342 ft 432 kts 85°
2026-05-08 14:45 40.06579 -82.27705 20955 ft 436 kts 85°
2026-05-08 14:46 40.06667 -82.23721 21568 ft 441 kts 85°
2026-05-08 14:46 40.06754 -82.19689 22127 ft 447 kts 85°
2026-05-08 14:46 40.06841 -82.15612 22688 ft 452 kts 85°
2026-05-08 14:46 40.06927 -82.11494 23272 ft 456 kts 85°
2026-05-08 14:47 40.07013 -82.07332 23786 ft 461 kts 85°
2026-05-08 14:47 40.07099 -82.03123 24246 ft 466 kts 86°
2026-05-08 14:47 40.07182 -81.98928 24727 ft 469 kts 86°
2026-05-08 14:47 40.07267 -81.94602 25212 ft 473 kts 86°
2026-05-08 14:48 40.07348 -81.90355 25666 ft 476 kts 86°
2026-05-08 14:48 40.07430 -81.86016 26119 ft 480 kts 86°
2026-05-08 14:48 40.07511 -81.81641 26588 ft 483 kts 86°
2026-05-08 14:48 40.07591 -81.77243 27125 ft 484 kts 86°
2026-05-08 14:49 40.07668 -81.72845 27754 ft 483 kts 86°
2026-05-08 14:49 40.07650 -81.68469 28358 ft 483 kts 91°
2026-05-08 14:49 40.07428 -81.64090 28919 ft 484 kts 93°
2026-05-08 14:49 40.07117 -81.59700 29489 ft 484 kts 94°
2026-05-08 14:50 40.06781 -81.55325 30064 ft 484 kts 94°
2026-05-08 14:50 40.06450 -81.50950 30522 ft 484 kts 94°
2026-05-08 14:50 40.06134 -81.46559 30896 ft 486 kts 94°
2026-05-08 14:50 40.05829 -81.42132 31108 ft 493 kts 93°
2026-05-08 14:51 40.05529 -81.37635 31226 ft 502 kts 93°
2026-05-08 14:51 40.05228 -81.33063 31393 ft 509 kts 93°
2026-05-08 14:51 40.04922 -81.28435 31640 ft 514 kts 93°
2026-05-08 14:51 40.04616 -81.23843 32009 ft 514 kts 93°
2026-05-08 14:52 40.04303 -81.19201 32468 ft 513 kts 93°
2026-05-08 14:52 40.03668 -81.09892 33066 ft 519 kts 94°
2026-05-08 14:52 40.03344 -81.05169 33223 ft 525 kts 94°
2026-05-08 14:53 40.03014 -81.00397 33429 ft 529 kts 94°
2026-05-08 14:53 40.02681 -80.95611 33728 ft 531 kts 94°
2026-05-08 14:53 40.02344 -80.90809 34112 ft 531 kts 94°
2026-05-08 14:53 40.01736 -80.86059 34469 ft 529 kts 107°
2026-05-08 14:54 40.00456 -80.81583 34857 ft 523 kts 119°
2026-05-08 14:54 39.98654 -80.77479 35015 ft 521 kts 130°
2026-05-08 14:54 39.96337 -80.73884 35040 ft 518 kts 140°
2026-05-08 14:55 39.91312 -80.67119 35034 ft 525 kts 141°
2026-05-08 14:55 39.86260 -80.60275 34968 ft 524 kts 140°
2026-05-08 14:56 39.81265 -80.53393 35030 ft 522 kts 140°
2026-05-08 14:56 39.76295 -80.46521 35031 ft 521 kts 140°
2026-05-08 14:57 39.71329 -80.39671 35030 ft 520 kts 140°
2026-05-08 14:57 39.66366 -80.32850 35038 ft 519 kts 140°
2026-05-08 14:58 39.61402 -80.26044 34992 ft 518 kts 141°
2026-05-08 14:58 39.56482 -80.19315 35048 ft 518 kts 141°
2026-05-08 14:59 39.51506 -80.12525 35057 ft 519 kts 141°
2026-05-08 14:59 39.44011 -80.02325 34618 ft 526 kts 141°
2026-05-08 15:00 39.41488 -79.98898 34074 ft 525 kts 141°
2026-05-08 15:00 39.38970 -79.95478 33412 ft 524 kts 141°
2026-05-08 15:00 39.36459 -79.92071 32710 ft 523 kts 141°
2026-05-08 15:00 39.33952 -79.88674 32124 ft 521 kts 141°
2026-05-08 15:01 39.31522 -79.85257 31508 ft 526 kts 133°
2026-05-08 15:01 39.29668 -79.81133 30889 ft 535 kts 114°
2026-05-08 15:01 39.28707 -79.76516 30473 ft 531 kts 97°
2026-05-08 15:01 39.28353 -79.71810 30043 ft 524 kts 93°
2026-05-08 15:02 39.28090 -79.67136 29525 ft 518 kts 93°
2026-05-08 15:02 39.27802 -79.62526 29095 ft 512 kts 94°
2026-05-08 15:02 39.27460 -79.57963 28637 ft 507 kts 95°
2026-05-08 15:02 39.27090 -79.53455 28222 ft 501 kts 95°
2026-05-08 15:03 39.26721 -79.49008 27786 ft 497 kts 95°
2026-05-08 15:03 39.26358 -79.44604 27384 ft 491 kts 95°
2026-05-08 15:03 39.25999 -79.40228 26981 ft 490 kts 95°
2026-05-08 15:03 39.25641 -79.35852 26562 ft 491 kts 95°
2026-05-08 15:04 39.25282 -79.31479 26150 ft 489 kts 95°
2026-05-08 15:04 39.24922 -79.27125 25727 ft 486 kts 95°
2026-05-08 15:04 39.24563 -79.22808 25326 ft 482 kts 95°
2026-05-08 15:04 39.24207 -79.18576 24928 ft 479 kts 95°
2026-05-08 15:05 39.23844 -79.14321 24522 ft 476 kts 95°
2026-05-08 15:05 39.23482 -79.10084 24123 ft 473 kts 95°
2026-05-08 15:05 39.23121 -79.05881 23723 ft 470 kts 95°
2026-05-08 15:05 39.22761 -79.01692 23273 ft 468 kts 95°
2026-05-08 15:06 39.22401 -78.97519 22844 ft 465 kts 96°
2026-05-08 15:06 39.22033 -78.93389 22443 ft 461 kts 96°
2026-05-08 15:06 39.21640 -78.89302 22057 ft 458 kts 96°
2026-05-08 15:06 39.21238 -78.85235 21652 ft 455 kts 97°
2026-05-08 15:07 39.20842 -78.81209 21282 ft 451 kts 96°
2026-05-08 15:07 39.20450 -78.77205 20903 ft 449 kts 96°
2026-05-08 15:07 39.20062 -78.73228 20516 ft 446 kts 96°
2026-05-08 15:07 39.19681 -78.69326 20158 ft 443 kts 96°
2026-05-08 15:08 39.19294 -78.65401 19795 ft 441 kts 97°
2026-05-08 15:08 39.19033 -78.62756 19533 ft 439 kts 96°
2026-05-08 15:08 39.18523 -78.57604 19063 ft 436 kts 96°
2026-05-08 15:08 39.18139 -78.53737 18689 ft 435 kts 96°
2026-05-08 15:09 39.17754 -78.49882 18315 ft 432 kts 96°
2026-05-08 15:09 39.17373 -78.46056 17919 ft 429 kts 96°
2026-05-08 15:09 39.16991 -78.42248 17531 ft 426 kts 96°
2026-05-08 15:09 39.16612 -78.38473 17127 ft 422 kts 96°
2026-05-08 15:10 39.16124 -78.34768 16829 ft 416 kts 104°
2026-05-08 15:10 39.15303 -78.31217 16473 ft 413 kts 109°
2026-05-08 15:10 39.14364 -78.27736 16134 ft 410 kts 110°
2026-05-08 15:10 39.13423 -78.24284 15796 ft 407 kts 109°
2026-05-08 15:11 39.12518 -78.20845 15460 ft 404 kts 108°
2026-05-08 15:11 39.11649 -78.17413 15128 ft 402 kts 107°
2026-05-08 15:11 39.10798 -78.14000 14861 ft 398 kts 107°
2026-05-08 15:11 39.09956 -78.10611 14355 ft 401 kts 107°
2026-05-08 15:12 39.09095 -78.07213 13824 ft 394 kts 107°
2026-05-08 15:12 39.08247 -78.03903 13371 ft 384 kts 107°
2026-05-08 15:12 39.07421 -78.00680 13002 ft 375 kts 107°
2026-05-08 15:12 39.06612 -77.97524 12661 ft 369 kts 107°
2026-05-08 15:13 39.05810 -77.94392 12360 ft 366 kts 108°
2026-05-08 15:13 39.05031 -77.91352 12041 ft 355 kts 108°
2026-05-08 15:13 39.04268 -77.88385 11729 ft 344 kts 108°
2026-05-08 15:13 39.03531 -77.85517 11452 ft 332 kts 108°
2026-05-08 15:14 39.03054 -77.83663 11260 ft 326 kts 108°
2026-05-08 15:14 39.02349 -77.80925 11008 ft 320 kts 108°
2026-05-08 15:14 39.01652 -77.78223 10751 ft 317 kts 108°
2026-05-08 15:14 39.00959 -77.75539 10486 ft 315 kts 108°
2026-05-08 15:15 39.00270 -77.72872 10205 ft 310 kts 108°
2026-05-08 15:15 38.99599 -77.70278 9933 ft 302 kts 108°
2026-05-08 15:15 38.98941 -77.67741 9658 ft 298 kts 108°
2026-05-08 15:15 38.98288 -77.65223 9391 ft 297 kts 109°
2026-05-08 15:16 38.97577 -77.62728 9138 ft 297 kts 111°
2026-05-08 15:16 38.96834 -77.60250 8857 ft 297 kts 111°
2026-05-08 15:16 38.96096 -77.57784 8604 ft 294 kts 111°
2026-05-08 15:16 38.95375 -77.55362 8342 ft 293 kts 111°
2026-05-08 15:17 38.94707 -77.52893 8082 ft 292 kts 101°
2026-05-08 15:17 38.94771 -77.50324 7797 ft 288 kts 72°
2026-05-08 15:17 38.95479 -77.47938 7497 ft 285 kts 63°
2026-05-08 15:17 38.96284 -77.45606 7180 ft 286 kts 63°
2026-05-08 15:18 38.97091 -77.43270 6856 ft 285 kts 63°
2026-05-08 15:18 38.97880 -77.40956 6543 ft 282 kts 63°
2026-05-08 15:18 38.98655 -77.38653 6202 ft 279 kts 63°
2026-05-08 15:18 38.99419 -77.36369 5887 ft 276 kts 63°
2026-05-08 15:19 39.00172 -77.34112 5574 ft 274 kts 63°
2026-05-08 15:19 39.00920 -77.31870 5253 ft 271 kts 63°
2026-05-08 15:19 39.01660 -77.29666 4980 ft 264 kts 63°
2026-05-08 15:19 39.02375 -77.27535 4686 ft 253 kts 63°
2026-05-08 15:20 39.02930 -77.25439 4366 ft 245 kts 82°
2026-05-08 15:20 39.02653 -77.23387 4123 ft 232 kts 117°
2026-05-08 15:20 39.01754 -77.21721 3863 ft 220 kts 136°
2026-05-08 15:20 39.00684 -77.20395 3622 ft 212 kts 140°
2026-05-08 15:21 38.99621 -77.19134 3387 ft 205 kts 140°
2026-05-08 15:21 38.98591 -77.17915 3148 ft 197 kts 140°
2026-05-08 15:21 38.97616 -77.16719 2932 ft 190 kts 138°
2026-05-08 15:21 38.96691 -77.15556 2740 ft 183 kts 138°
2026-05-08 15:22 38.95761 -77.14469 2516 ft 178 kts 142°
2026-05-08 15:22 38.94839 -77.13449 2321 ft 173 kts 143°
2026-05-08 15:22 38.93924 -77.12442 2139 ft 174 kts 144°
2026-05-08 15:22 38.92956 -77.11517 1895 ft 171 kts 154°
2026-05-08 15:23 38.91910 -77.10831 1671 ft 167 kts 159°
2026-05-08 15:23 38.90903 -77.10033 1439 ft 178 kts 139°
2026-05-08 15:23 38.90356 -77.08658 1244 ft 174 kts 94°
2026-05-08 15:23 38.90297 -77.07152 1002 ft 166 kts 112°
2026-05-08 15:24 38.89566 -77.06076 913 ft 165 kts 144°
2026-05-08 15:24 38.88711 -77.05042 648 ft 168 kts 140°
2026-05-08 15:24 38.87818 -77.04179 450 ft 155 kts 163°
2026-05-08 15:24 38.86798 -77.03925 234 ft 147 kts 178°
2026-05-08 15:25 38.85814 -77.03841 36 ft 133 kts 176°
2026-05-08 15:25 38.85017 -77.03763 23 ft 87 kts 175°
2026-05-08 15:25 38.84590 -77.03720 27 ft 42 kts 175°
2026-05-08 15:25 38.84402 -77.03756 24 ft 19 kts 237°
2026-05-08 15:26 38.84386 -77.03904 27 ft 16 kts 266°
2026-05-08 15:26 38.84380 -77.04048 28 ft 14 kts 266°
2026-05-08 15:26 38.84418 -77.04116 27 ft 10 kts 344°
2026-05-08 15:26 38.84488 -77.04134 28 ft 10 kts 349°
2026-05-08 15:27 38.84557 -77.04138 27 ft 10 kts 22°
2026-05-08 15:27 38.84610 -77.04068 27 ft 13 kts 45°
2026-05-08 15:27 38.84695 -77.04000 23 ft 15 kts 28°
2026-05-08 15:27 38.84786 -77.03950 22 ft 14 kts 14°
2026-05-08 15:28 38.84882 -77.03949 20 ft 14 kts 355°
2026-05-08 15:28 38.84974 -77.03958 20 ft 13 kts 355°
2026-05-08 15:28 38.85063 -77.03967 20 ft 13 kts 355°
2026-05-08 15:28 38.85150 -77.03976 20 ft 12 kts 355°
2026-05-08 15:29 38.85234 -77.03985 21 ft 12 kts 355°
2026-05-08 15:29 38.85316 -77.03993 22 ft 12 kts 355°
2026-05-08 15:29 38.85397 -77.04001 24 ft 11 kts 356°
2026-05-08 15:29 38.85477 -77.04009 26 ft 12 kts 354°
2026-05-08 15:30 38.85559 -77.04032 28 ft 12 kts 350°
2026-05-08 15:30 38.85636 -77.04044 28 ft 11 kts 354°
2026-05-08 15:30 38.85701 -77.04079 29 ft 10 kts 323°
2026-05-08 15:30 38.85737 -77.04151 28 ft 10 kts 270°
2026-05-08 15:31 38.85718 -77.04240 27 ft 11 kts 253°
2026-05-08 15:31 38.85667 -77.04265 27 ft 7 kts 168°
2026-05-08 15:31 38.85659 -77.04263 27 ft 0 kts 168°